Regional Weather Roundup
Issued by NWS Northern Indiana

Home | Current Version | Previous Version | Text Only | Print | Product List | Glossary Off
Versions: 1 2 3 4 5 6 7 8 9 10 11 12 13 14 15 16 17 18 19 20 21 22 23 24 25 26 27 28 29 30 31 32 33 34 35 36 37 38 39 40 41 42 43 44 45 46 47 48 49 50

000
ASUS43 KIWX 012100
RWRIWX

KIWX WEATHER ROUNDUP
NATIONAL WEATHER SERVICE NORTHERN INDIANA
500 PM EDT WED JUL 01 2015

NOTE: "FAIR" INDICATES FEW OR NO CLOUDS BELOW 12,000 FEET WITH NO
SIGNIFICANT WEATHER AND/OR OBSTRUCTIONS TO VISIBILITY.

* THESE STATIONS ARE NOT UNDER NWS QUALITY CONTROL. THEY ALSO MAY NOT
  REPORT WEATHER SUCH AS PRECIPITATION OR FOG.

INZ001>027-012200-
NORTHERN INDIANA

CITY           SKY/WX    TMP DP  RH WIND       PRES   REMARKS
GARY*          PTSUNNY   63  54  72 NE12      29.98S
SOUTH BEND     SUNNY     67  51  56 NW12      29.96S
ELKHART*       SUNNY     68  50  52 NW8       29.94F
GOSHEN         SUNNY     70  56  61 W9        29.92F
ANGOLA*        MOSUNNY   73  66  78 NW9       29.92S
FORT WAYNE     PTSUNNY   76  59  55 NW9       29.92S
PERU/GRISSOM   PTSUNNY   73  61  67 NW3       29.91F

$$
INZ028>050-012200-
CENTRAL INDIANA

CITY           SKY/WX    TMP DP  RH WIND       PRES   REMARKS
LAFAYETTE      MOSUNNY   75  62  64 CALM      29.90F
KOKOMO*        CLOUDY    75  61  60 W5        29.91S
MUNCIE*        PTSUNNY   76  62  62 N8        29.91F
INDIANAPOLIS   CLOUDY    76  60  57 CALM      29.89F

$$
MIZ043>046-050>051-056>058-064>065-071>073-077>080-012200-
SOUTHWEST LOWER MICHIGAN

CITY           SKY/WX    TMP DP  RH WIND       PRES   REMARKS
BATTLE CREEK   MOSUNNY   69  51  52 NW7       29.93S
BENTON HARBOR  CLOUDY    59  51  75 VRB6      29.97
COLDWATER*     MOSUNNY   70  50  47 W9        29.92S
HILLSDALE*     MOSUNNY   72  53  50 W7        29.92S
HOLLAND        MOSUNNY   60  51  72 NW13G21   29.97F
GRAND RAPIDS   PTSUNNY   67  52  58 NW12      29.93S
KALAMAZOO      MOSUNNY   69  53  56 NW13      29.94S
STURGIS*       SUNNY     70  52  52 NW9       29.92S
THREE RIVERS*  FAIR      69  51  51 NW10      29.93F

$$
OHZ001>008-015>018-024>025-012200-
NORTHWEST OHIO

CITY           SKY/WX    TMP DP  RH WIND       PRES   REMARKS
DEFIANCE       MOSUNNY   74  56  53 W9        29.91S
FINDLAY        CLOUDY    75  57  53 W9        29.91R
TOLEDO EXPRESS PTSUNNY   74  54  49 NW9       29.90S
TOLEDO METCALF MOSUNNY   74  55  51 W9        29.91R
LIMA           PTSUNNY   73  58  59 NW7       29.92R

$$
AND FOR LAKE MICHIGAN COASTAL AND OPEN LAKE BUOY OBSERVATIONS

STATION/POSITION TEMP    WIND        PRES    VSBY  WAVE
                 AIR SEA DIR/SP/G                  HT/PER
                 (F)     (DEG/KT/KT) (MB)    (MI)  (FT/S)
CALUMET HARBOR    60      30/  8/ 12   N/A
MICHIGAN CITY     57     360/ 11/ 13   N/A
BURNS HARBOR      60      40/ 13/ 15 1015.6S
SAINT JOSEPH      60     340/ 12/ 14   N/A
4 MI NW BRIDGMAN  58 63                N/A           3/ 5
MICHIGAN CITY     58 65   40/ 10/ 12   N/A           3/ 5

$$
&&



USA.gov is the U.S. government's official web portal to all federal, state and local government web resources and services.